Other Public Products
Issued by NWS Grand Forks, ND

Home | Current Version | Previous Version | Text Only | Print | Product List | Glossary Off
Versions: 1 2 3 4 5 6 7 8 9 10 11 12 13 14 15 16 17 18 19 20 21 22 23 24 25 26 27 28 29 30 31 32 33 34 35 36 37 38 39 40 41 42 43 44 45 46 47 48 49 50

000
FPUS83 KFGF 210010
OPUFGF
PRAIRIE TO PINES WEATHER ROUNDUP
NATIONAL WEATHER SERVICE EASTERN NORTH DAKOTA/GRAND FORKS ND
600 PM CST MON NOV 20 2017

 **SATELLITE DATA USED TO AUGMENT SKY COVER AT AUTOMATED STATIONS**
 *****  WEATHER ACROSS EASTERN NORTH DAKOTA  *****

CITY           SKY/WX    TMP DP  RH WIND       PRES   REMARKS
GRAND FORKS    FAIR      38  32  79 NW21G29   29.39R
6HR MIN TEMP:  37; 6HR MAX TEMP:  44;

GRND FORKS AFB PTCLDY    38  30  74 NW23G29   29.40R
GRND FORKS NWS NOT AVBL
BUXTON         NOT AVBL
DEVILS LAKE    FAIR      31  26  82 W30G41    29.47R WCI  16
6HR MIN TEMP:  31; 6HR MAX TEMP:  43;

FARGO          FAIR      45  30  55 W25G38    29.44R
6HR MIN TEMP:  44; 6HR MAX TEMP:  54;

WAHPETON ARPT  NOT AVBL
$$

 *****  WEATHER ACROSS CENTRAL AND WESTERN NORTH DAKOTA  *****

CITY           SKY/WX    TMP DP  RH WIND       PRES   REMARKS
JAMESTOWN      FAIR      37  27  67 NW31G40   29.53R
6HR MIN TEMP:  37; 6HR MAX TEMP:  54;

BISMARCK       FAIR      42  29  59 NW17G25   29.65R
6HR MIN TEMP:  42; 6HR MAX TEMP:  60;

MINOT          MOCLDY    28  18  66 NW31G43   29.60R WCI  12
6HR MIN TEMP:  28; 6HR MAX TEMP:  51;

MINOT AFB      MOCLDY    25  17  69 NW31G43   29.58R WCI   8
6HR MIN TEMP:  25; 6HR MAX TEMP:  47;

GARRISON         N/A     31  20  63 NW18      29.64R WCI  19
6HR MIN TEMP:  31; 6HR MAX TEMP:  49;

WILLISTON      FAIR      30  17  58 W14       29.73R WCI  19
6HR MIN TEMP:  30; 6HR MAX TEMP:  49;

DICKINSON      MOCLDY    34  22  61 NW13      29.67R WCI  25
6HR MIN TEMP:  33; 6HR MAX TEMP:  53;

HETTINGER      MOCLDY    41  24  51 N16       29.68R
6HR MIN TEMP:  41; 6HR MAX TEMP:  55;

$$

 *****  OTHER OBSERVATIONS NORTHEAST NORTH DAKOTA  *****

CITY           SKY/WX    TMP DP  RH WIND       PRES   REMARKS
WALHALLA       FAIR      30  23  74 W26G45    29.39R WCI  16
LANGDON        CLOUDY    30  27  86 NW38G47   29.41R WCI  14
CAVALIER       FAIR      34  25  69 W28G39    29.38R WCI  20
GRAFTON        MOCLDY    36  30  80 NW25G37   29.40R
CANDO          FAIR      30  18  59 NW32G45   29.50R WCI  15
FORT TOTTEN      N/A     32  25  75 NW15      29.95S WCI  22
ROLLA          FAIR      23  16  74 NW37G53   29.48R WCI   4
RUGBY          FAIR      27  19  74 NW29G41   29.54R WCI  11
 ***** THE ABOVE OBSERVATIONS ARE NON NWS ARE NOT QUALITY
        CONTROLLED AND MAY MIS-REPORT RAIN FOR SNOW...
$$

 *****  OTHER OBSERVATIONS SOUTHEAST NORTH DAKOTA *****

CITY           SKY/WX    TMP DP  RH WIND       PRES   REMARKS
COOPERSTOWN    FAIR      36  30  80 W24G31    29.47R
VALLEY CITY    FAIR      37  30  75 NW29G43   29.50R
OAKES            N/A     45  28  53 NW23G31   29.53R
GWINNER          N/A     46  27  46 NW21      29.51R
SHEYENNE NWR     N/A     48  28  45 NW21      29.95S
BUFFALO        NOT AVBL
WYNDMERE       NOT AVBL
 ***** THE ABOVE OBSERVATIONS ARE NON NWS ARE NOT QUALITY
       CONTROLLED AND MAY MIS-REPORT RAIN FOR SNOW...
$$

  *****  WEATHER ACROSS NORTHERN MINNESOTA  *****

CITY           SKY/WX    TMP DP  RH WIND       PRES   REMARKS
FLAG ISLAND    CLOUDY    37  28  70 W14       29.16S
WARROAD        MOCLDY    39  30  70 W14G24    29.21R
ROSEAU         CLOUDY    39  32  75 W16G24    29.23R
HALLOCK        CLOUDY    37  28  70 NW35G43   29.33R
THF RVR FALLS  CLOUDY    38  31  76 W25G38    29.33R
6HR MIN TEMP:  36; 6HR MAX TEMP:  41;

HALSTAD        NOT AVBL
FOSSTON        FAIR      39  28  65 W24G37    29.34R
BAUDETTE       CLOUDY    38  28  67 W9        29.18F
6HR MIN TEMP:  38; 6HR MAX TEMP:  40;

WASKISH        FAIR      39  30  70 SW17G25   29.25R
CROOKSTON      MOCLDY    39  32  75 W25G33    29.38R
$$
  *****  WEATHER ACROSS CENTRAL AND WEST MINNESOTA  *****

CITY           SKY/WX    TMP DP  RH WIND       PRES   REMARKS
BEMIDJI        FAIR      40  27  57 W16G23    29.29S
6HR MIN TEMP:  39; 6HR MAX TEMP:  44;

PARK RAPIDS    FAIR      38  26  62 W13       29.34R
6HR MIN TEMP:  35; 6HR MAX TEMP:  45;

WADENA         FAIR      39  27  60 SW10      29.37R
DETROIT LAKES  FAIR      45  28  53 W21G31    29.40R
MOORHEAD       FAIR      45  28  53 W28G35    29.45R
FERGUS FALLS   FAIR      43  27  52 W15       29.45R
ELBOW LAKE     FAIR      42  26  53 NW18      29.44R
MORRIS MN      FAIR      43  27  52 W15       29.45R
STAPLES        FAIR      37  25  60 SW8       29.37R
WHEATON        FAIR      46  21  36 W9        29.49R
$$
  *****  WEATHER ELSEWHERE ACROSS MINNESOTA  *****

CITY           SKY/WX    TMP DP  RH WIND       PRES   REMARKS
DULUTH         FAIR      34  28  79 SW15      29.31F WCI  24
6HR MIN TEMP:  31; 6HR MAX TEMP:  35;

INTRNTL FALLS    N/A     40  25  55 SW12G21   29.19F
6HR MIN TEMP:  37; 6HR MAX TEMP:  42;

ELY            FAIR      36  27  69 SW12G18   29.23F
CLOQUET        FAIR      36  27  69 SW9       29.32F
BRAINERD       FAIR      35  28  75 SW9       29.36F
6HR MIN TEMP:  35; 6HR MAX TEMP:  41;

HIBBING        FAIR      35  26  69 SW5       29.28S
6HR MIN TEMP:  34; 6HR MAX TEMP:  40;

ALEXANDRIA     FAIR      39  28  64 SW12      29.43R
6HR MIN TEMP:  37; 6HR MAX TEMP:  43;

SAINT CLOUD    FAIR      34  28  79 S7        29.42S
6HR MIN TEMP:  33; 6HR MAX TEMP:  39;

MINNEAPOLIS    CLOUDY    47  30  51 SW10      29.45R
6HR MIN TEMP:  43; 6HR MAX TEMP:  48;

$$

  *****  WEATHER ACROSS SOUTH DAKOTA  *****

CITY           SKY/WX    TMP DP  RH WIND       PRES   REMARKS
SIOUX FALLS    MOCLDY    46  27  47 SW6       29.56R
6HR MIN TEMP:  43; 6HR MAX TEMP:  51;

BROOKINGS      FAIR      42  25  50 SW9       29.55R
WATERTOWN      FAIR      35  24  64 SW9       29.52R
6HR MIN TEMP:  35; 6HR MAX TEMP:  54;

HURON          FAIR      39  20  46 NW10      29.57R
6HR MIN TEMP:  39; 6HR MAX TEMP:  63;

SISSETON         N/A     50  23  34 NW20G25   29.48R
ABERDEEN       FAIR      51  23  33 W17       29.55R
6HR MIN TEMP:  44; 6HR MAX TEMP:  61;

MITCHELL       FAIR      51  23  33 W12       29.58R
PIERRE         FAIR      49  25  39 W14       29.62R
6HR MIN TEMP:  48; 6HR MAX TEMP:  65;

MOBRIDGE       FAIR      50  27  40 N18G26    29.57R
RAPID CITY     FAIR      50  22  33 N18       29.69R
6HR MIN TEMP:  50; 6HR MAX TEMP:  68;

$$

  *****  SOME WEATHER IN NEARBY STATES *****

CITY           SKY/WX    TMP DP  RH WIND       PRES   REMARKS
GLASGOW MT     CLOUDY    31  17  56 NW14      29.81R WCI  21
6HR MIN TEMP:  31; 6HR MAX TEMP:  43;

GREAT FALLS MT LGT SNOW  30  25  81 E9        29.80R WCI  22
6HR MIN TEMP:  30; 6HR MAX TEMP:  49; 6HR PCP: TRACE;

CHEYENNE WY    FAIR      51  11  20 CALM      29.87R
6HR MIN TEMP:  50; 6HR MAX TEMP:  58;

SCOTTSBLUFF NE FAIR      54  16  22 NW13      29.79R
6HR MIN TEMP:  54; 6HR MAX TEMP:  63;

OMAHA NE       FAIR      50  28  42 S9        29.64R
6HR MIN TEMP:  46; 6HR MAX TEMP:  59;

DES MOINES IA  MOCLDY    55  28  35 SW12      29.64R
6HR MIN TEMP:  55; 6HR MAX TEMP:  63;

DAVENPORT IA   FAIR      52  30  43 S15G23    29.72R
6HR MIN TEMP:  52; 6HR MAX TEMP:  59;

CHICAGO IL     MOCLDY    50  33  52 S21G30    29.73S
6HR MIN TEMP:  48; 6HR MAX TEMP:  52;

EAU CLAIRE WI  FAIR      45  31  58 S10       29.43F
6HR MIN TEMP:  43; 6HR MAX TEMP:  48;

LA CROSSE WI   FAIR      50  33  52 S9        29.53S
6HR MIN TEMP:  47; 6HR MAX TEMP:  54;

$$

  *****  SOME NATIONAL WEATHER *****

CITY           SKY/WX    TMP DP  RH WIND       PRES   REMARKS
LA GUARDIA NY  FAIR      46  24  42 SW12G23   30.10R


USA.gov is the U.S. government's official web portal to all federal, state and local government web resources and services.